Regional Weather Roundup
Issued by NWS Upton, NY

Current Version | Previous Version | Text Only | Print | Product List | Glossary Off
Versions: 1 2 3 4 5 6 7 8 9 10 11 12 13 14 15 16 17 18 19 20 21 22 23 24 25 26 27 28 29 30 31 32 33 34 35 36 37 38 39 40 41 42 43 44 45 46 47 48 49 50
000 ASUS41 KOKX 250118 RWROKX REGIONAL WEATHER ROUNDUP NATIONAL WEATHER SERVICE NEW YORK NY 900 PM EDT SUN MAY 24 2015 NOTE: "FAIR" INDICATES FEW OR NO CLOUDS BELOW 12,000 FEET WITH NO SIGNIFICANT WEATHER AND/OR OBSTRUCTIONS TO VISIBILITY. NYZ071-072-176-178-NJZ106-104-250200- NEW YORK CITY METRO AREA CITY SKY/WX TMP DP RH WIND PRES REMARKS CENTRAL PARK PTCLDY 69 50 50 CALM 30.26S LAGUARDIA APRT MOCLDY 67 51 56 S9 30.24R KENNEDY INTL MOCLDY 63 52 67 S17G25 30.26R NEWARK/LIBERTY MOCLDY 77 40 26 SW10 30.23R BRNX BOT. GARD N/A 64 52 63 SE5 30.25F TETERBORO PTCLDY 72 50 45 SE3 30.22R $$ NYZ177-179-078>081-250200- LONG ISLAND NEW YORK CITY SKY/WX TMP DP RH WIND PRES REMARKS FARMINGDALE MOCLDY 62 49 62 SW10 30.27R ISLIP MOCLDY 61 48 62 SW13 30.26S SHIRLEY CLOUDY 61 49 64 SW8 30.29R WESTHAMPTON CLOUDY 58 48 69 SW7 30.30R MONTAUK POINT N/A 60 48 64 SW9G22 30.28R $$ NYZ052-065-067-250200- HUDSON VALLEY CITY SKY/WX TMP DP RH WIND PRES REMARKS WHITE PLAINS MOCLDY 65 51 60 CALM 30.25R NEWBURGH CLEAR 70 46 43 CALM 30.23R MONTGOMERY PTCLDY 61 52 72 CALM 30.22R POUGHKEEPSIE MOCLDY 69 47 45 CALM 30.21R ALBANY CLOUDY 67 46 47 CALM 30.19R $$ NJZ001-105-106-008-010-013-015-019>022-104-250200- NEW JERSEY CITY SKY/WX TMP DP RH WIND PRES REMARKS NEWARK/LIBERTY MOCLDY 77 40 26 SW10 30.23R TETERBORO PTCLDY 72 50 45 SE3 30.22R CALDWELL PTCLDY 74 39 28 SW3 30.24R MORRISTOWN MOCLDY 72 41 33 SW5 30.24R SOMERVILLE CLOUDY 66 45 46 CALM 30.22R SUSSEX PTCLDY 65 46 50 CALM 30.25R ANDOVER N/A 64 49 57 CALM 30.24R TRENTON MOCLDY 71 44 37 SW6 30.25R MILLVILLE CLEAR 63 56 78 SE5 30.28S ATLANTIC CITY CLEAR 62 51 67 S9 30.29F WRIGHTSTOWN MOCLDY 66 50 56 S8 30.24S TOMS RIVER PTCLDY N/A N/A N/A S8G17 30.28S BELMAR PTCLDY 66 46 48 S8 30.27S $$ PAZ047>061-062-071-250200- EASTERN PENNSYLVANIA CITY SKY/WX TMP DP RH WIND PRES REMARKS PHILADELPHIA MOCLDY 73 54 51 S9 30.27R ALLENTOWN CLOUDY 74 40 29 SW7 30.24R SCRANTON CLOUDY 72 43 35 CALM 30.23S $$ CTZ002-004>006-009-010-012-RIZ004-006-007-MAZ004-011-015-250200- SOUTHERN NEW ENGLAND IN CT CITY SKY/WX TMP DP RH WIND PRES REMARKS BRADLEY INTL CLOUDY 70 49 47 S13 30.21R HARTFORD CLOUDY 67 50 54 S7 30.23R DANBURY PTCLDY 64 49 57 SW5 30.26R WTRBRY/OXFORD MOCLDY 63 48 59 S6 30.26R BRIDGEPORT MOCLDY 63 51 65 SW7 30.26R MERIDEN CLOUDY 65 49 56 S5 30.25R NEW HAVEN CLOUDY 61 49 64 SW6 30.26R CHESTER FAIR 61 48 63 SW9 30.28R GROTON CLOUDY 60 47 61 W6 30.27R WILLIMANTIC CLOUDY 67 49 52 SW7 30.25R IN RI CITY SKY/WX TMP DP RH WIND PRES REMARKS PROVIDENCE MOCLDY 65 48 54 SW13 30.24R BLOCK ISLAND CLOUDY 55 46 71 SW15 30.28R WESTERLY CLOUDY 62 46 55 SW9 30.27R IN MA CITY SKY/WX TMP DP RH WIND PRES REMARKS BOSTON CLOUDY 70 46 42 SW20 30.19R WORCESTER MOCLDY 67 44 43 SW10 30.23R WESTFIELD NOT AVBL PROVINCETOWN MOCLDY 55 48 76 SW16 30.22R NANTUCKET MOCLDY 57 47 69 SW17 30.27R $$ ANZ330-335-338-340-345-350-353-355-250200- COASTAL MARINE OBSERVATIONS STATION/POSITION TIME SKY/WX TEMP WIND PRES VSBY WAVE AIR SEA DIR/SP/G HT/PER (UTC) (F) (DEG/KT/KT) (MB) (MI) (FT/S) NY HARB ENTRANCE 0050 60 56 210/ 21/ 25 1024.0 4/ 5 4S FIRE IS 0003 54 N/A 4/ 5 20S FIRE ISLAND 0050 59 55 210/ 17/ 21 1024.9 3/ 5 GREAT SOUTH BAY 0030 60 63 210/ 8/ 23 N/A 23SW MTP 0050 57 53 230/ 16/ 17 1025.0 3/ 5 HUDSON CANYON NOT AVBL KINGS POINT 0000 66 57 180/ 9/ 15 1023.2 CENTRAL LI SOUND 0000 60 53 200/ 16/ 17 N/A EASTERN LI SOUND 0000 58 250/ 8/ 12 N/A ROBBINS REEF 0000 68 170/ 12/ 13 1022.5 $$ >>>>>>>>>>>>>>>>>>>>>>>>>>>> KEY <<<<<<<<<<<<<<<<<<<<<<<<<<< > < > SKY/WX - SKY CONDITION/PRESENT WEATHER < > TMP - TEMPERATURE IN FAHRENHEIT < > DP - DEWPOINT IN FAHRENHEIT < > RH - RELATIVE HUMIDITY IN PERCENT < > WIND - DIRECTION AND SPEED IN MPH < > PRES - MEAN SEA LEVEL PRESSURE IN INCHES OF HG < > WCI - WIND CHILL INDEX < > VSB - VISIBILITY IN MILES < > HX - HEAT INDEX < > TC - TEMPERATURE IN CELSIUS < > VRB - VARIABLE WIND DIRECTION < > < >>>>>>>>>>>>>>>>>>>>>>>>>>>> KEY <<<<<<<<<<<<<<<<<<<<<<<<<<<

USA.gov is the U.S. government's official web portal to all federal, state and local government web resources and services.